STARLINK-32512, 62027

Orbit data source: Space-Track

STARLINK-32512, 62027 is a payload satellite owned by SpaceX/Seattle (US) in LEO that was launched on Mon, 18 Nov 2024 UTC via an FALCON 9 launch vehicle from the Air Force Western Test Range (AFWTR). Payloads include a variety of satellites, spacecraft, and rockets equipped with specific instruments for various scientific and technological missions. These include communications satellites like Starlink; space stations such as the ISS; scientific satellites like the Hubble; Earth observation satellites from companies like Planet Labs, Umbra, and HawkEye 360; GPS; miniature CubeSats for education and research; and military/defense satellites.

Loading next visibility...
STARLINK-32512 details
Identifier
62027, 2024-213V
Orbit
LEO
Last TLE update18 hours ago
Origin
Flag of USSpaceX/Seattle (US)
ManufacturerSpaceX/Seattle
MissionOperational spacecraft
Bus & MotorSTARLINK V2M, Unknown motor
Mass730 kg wet, ~700 kg dry
Launch date (UTC)
2024-11-18 (4 weeks ago)
Launch vehicle
FALCON 9
Launch site
Air Force Western Test Range (AFWTR)
Object type
Payload
Rocket body
Debris
Shape & HBRUnknown
Radar Cross SectionLarge (>1 m²)

Expand to show TLE details & history

TLE from 18 hours ago
0 STARLINK-32512
1 62027U 24213V   24348.16668981  .00008008  00000-0  15188-3 0  9997
2 62027  53.1600 112.2821 0001132  91.7509  59.8743 15.49311578  4610
Epoch: 2024-12-13T04:00Z
Definitive object data (Epoch: 2024-12-13T04:00:01.999Z)
Latitude22.40216°
Longitude132.0524°
Altitude419.045 km
Speed7.663 km/s
True Right ascension18h 17m 35s
True Declination22° 16' 31"
Sunlit
Object was in daylight at TLE epoch
Visualization TLE readout
Latitude37.25688°
Longitude111.73471°
Altitude421.105 km
Speed7.664 km/s
Apparent Right ascension13h 18m 15s
Apparent Declination0° 15' 47"
Sunlit
Object is in daylight
Visualization observer readout
Local Sidereal Time21:01:19
Azimuth287.413° WNW
Elevation-19.297°
Doppler factor1
Orbital elements
Apogee altitude419.767 km
Perigee altitude418.228 km
Semi-major axis6,797.134 km
Eccentricity0.0001132
Inclination53.16°
RAAN112.2821°
Arg. of periapsis91.7509°
True anomaly59.88552°
Mean anomaly59.8743°
Eccentric anomaly59.87991°
Mean motion3.87306 °/min
BSTAR0.00015188
Orbital period92.95 mins
Loading maneuver chart data...
Loading historical data...
Loading historical data...
Loading historical data...
Loading historical data...
Loading historical data...
Loading historical data...
Loading historical data...

STARLINK-32512 Visibility forecast

Observer location: undefined°, undefined

Span
Click to sort rows by Start time (UTC) header in descending order
Start Az.
Max El. time (UTC)
Max El. Az.
Max El.
End time (UTC)
End Az.
5 mins2024-12-14 10:28:24.803Z201.223° SSW2024-12-14 10:31:24.803Z124.906° SE31.11°2024-12-14 10:33:24.803Z72.23° E
4 mins2024-12-14 12:06:24.803Z289.97° WNW2024-12-14 12:08:24.803Z345.127° N22.27°2024-12-14 12:10:24.803Z25.172° NE
5 mins2024-12-14 16:58:24.803Z329.769° NNW2024-12-14 17:01:24.803Z46.423° ENE27.058°2024-12-14 17:03:24.803Z91.444° ESE
4 mins2024-12-14 18:36:24.803Z263.734° W2024-12-14 18:37:24.803Z235.504° WSW23.792°2024-12-14 18:40:24.803Z169.871° S
|